RH
80 85 79 68 67 67 66 70 68 66 66 64 65 63 63 62 61 58 56 50 49 47 41 35 33 33 29 26 23 21 21 24 35 43 55 54 49 46 41 31 27 39 66
63 86 80 72 71 75 72 62 59 64 67 64 61 61 59 52 49 52 55 52 50 54 49 43 36 37 42 44 42 37 31 27 27 33 40 56 56 51 48 46 38 29 28
72 77 80 77 76 66 61 72 74 70 69 61 56 53 50 39 41 40 52 55 53 53 55 51 40 33 31 31 34 38 43 44 39 32 34 41 56 59 54 48 50 44 32
78 72 74 76 63 65 68 76 72 67 62 59 52 52 41 36 39 40 35 52 59 58 54 59 59 41 32 25 24 21 23 49 38 33 37 39 38 50 63 61 51 53 48
74 71 70 69 64 76 77 75 70 66 61 54 43 42 45 39 43 40 41 55 61 56 63 61 62 61 58 59 55 43 53 88 68 90 87 64 44 38 45 65 66 56 53
75 75 81 71 63 72 72 77 74 63 54 45 45 52 52 44 41 50 56 58 55 57 60 63 65 60 58 59 66 73 92 90 93 97 95 98 63 31 38 40 66 71 61
72 73 74 77 74 66 76 76 68 57 53 52 52 48 52 44 36 47 45 56 55 55 56 63 62 62 63 65 69 75 86 92 100 99 99 95 86 32 19 34 43 69 76
78 75 70 72 72 70 60 59 69 67 58 56 58 53 51 45 40 45 51 51 51 53 56 53 60 62 65 64 66 79 94 89 79 76 94 95 94 91 66 55 58 56 74
76 74 74 74 69 61 53 63 67 68 64 62 59 55 51 48 49 47 47 45 49 48 48 47 50 53 60 59 62 79 75 71 72 70 98 99 95 94 92 88 89 96 88
76 73 68 70 70 68 69 67 61 71 68 63 58 54 54 54 53 48 44 45 45 40 39 43 46 51 53 54 60 62 83 89 86 72 73 100 99 99 100 93 100 97 97
74 65 66 71 75 72 69 71 73 73 68 66 62 56 53 52 51 53 56 50 42 38 40 41 45 48 48 49 51 54 73 60 62 73 72 82 98 99 99 100 95 90 89
49 54 59 64 70 69 70 71 74 72 74 79 82 75 68 61 66 66 65 55 47 44 44 45 45 46 45 46 48 47 50 56 79 89 74 69 86 89 96 96 75 91 99
49 50 60 67 67 68 67 68 77 65 76 83 93 93 77 73 74 69 68 67 62 56 54 50 48 47 45 45 45 47 51 58 60 67 76 83 72 74 66 62 56 50 65
54 60 61 63 65 66 65 64 66 74 81 91 95 90 78 82 81 77 75 79 73 64 56 55 53 48 46 46 46 49 58 58 59 62 72 77 74 71 61 69 58 51 46
50 46 55 55 55 56 60 64 65 77 80 85 94 87 92 86 89 85 86 67 75 76 66 53 51 48 48 56 55 58 63 65 64 66 65 67 73 70 59 48 65 50 47
56 56 57 57 63 65 66 64 70 73 91 93 92 87 84 92 92 89 68 64 56 60 60 50 49 51 58 62 63 66 69 71 72 68 80 77 59 68 66 50 45 51 42
59 57 58 64 68 65 64 80 83 92 88 86 84 89 94 90 87 80 62 57 55 52 54 55 53 62 75 75 75 75 71 75 68 64 59 68 74 80 80 71 45 37 42
62 59 64 69 67 74 86 83 89 86 90 89 92 93 86 76 68 62 60 58 57 58 58 60 65 77 81 80 79 75 73 69 82 74 75 81 90 94 86 74 51 36 35
61 64 69 69 73 78 82 91 88 91 90 92 88 86 70 66 68 66 68 70 68 64 67 82 84 85 82 75 72 75 72 72 75 74 87 80 77 68 64 66 53 34 35
66 70 71 71 78 79 81 88 89 86 91 84 73 68 69 70 69 83 81 82 77 79 83 90 88 80 82 82 88 79 82 80 75 62 71 75 88 95 86 60 49 36 29
72 74 70 78 87 91 82 82 86 83 71 64 66 67 64 66 69 76 90 91 94 94 94 90 88 91 91 86 80 76 74 74 77 79 81 75 79 82 90 84 72 70 54
68 71 72 79 81 82 83 71 73 77 80 66 67 67 69 69 71 79 92 100 96 99 99 96 91 92 84 82 92 96 93 89 77 66 87 92 87 90 97 91 96 97 99
72 72 76 84 93 93 86 80 77 77 79 74 77 78 75 68 78 81 90 91 95 90 88 98 96 96 96 92 92 94 88 95 92 80 83 78 76 92 94 92 94 85 73
72 73 79 87 96 92 87 74 82 74 82 83 85 83 78 80 80 78 58 99 91 82 75 81 90 93 93 91 92 91 93 87 80 78 76 85 73 75 78 81 67 67 68
74 75 76 90 91 93 96 77 82 75 92 91 91 83 87 88 86 46 24 89 95 87 79 81 83 90 82 85 88 97 82 93 87 82 79 95 78 79 77 76 74 74 77
73 73 75 81 86 95 92 88 81 78 91 98 92 87 88 90 79 28 21 42 98 95 90 93 99 97 96 98 97 97 96 96 96 91 81 92 96 97 91 79 82 76 83
Wind_Speed
7 4 6 4 5 6 7 8 9 11 14 15 18 19 20 21 20 17 16 24 24 25 23 21 21 20 21 22 22 21 22 22 22 22 21 20 18 16 15 16 18 19 20
13 6 6 4 5 8 9 13 17 17 15 17 19 21 21 21 20 20 17 17 21 22 23 22 21 21 21 21 21 21 21 22 23 21 23 23 23 21 19 17 18 20 22
11 10 9 12 15 14 12 10 12 13 16 18 20 20 21 21 18 18 18 13 15 20 19 22 25 24 24 25 25 24 23 23 23 23 23 22 24 25 24 23 20 20 22
11 12 14 14 12 11 13 11 12 14 16 20 22 21 22 21 19 19 18 14 14 13 16 19 24 27 27 26 27 28 26 24 24 23 25 25 24 25 26 26 27 24 21
8 10 11 10 9 7 9 10 13 16 19 22 21 21 23 20 20 20 17 15 14 15 17 19 23 24 22 27 30 29 24 19 22 19 19 24 28 27 27 29 28 28 26
9 4 4 8 9 8 9 12 17 17 18 21 22 22 21 21 22 18 14 14 14 15 17 18 20 20 22 25 25 24 19 22 20 18 18 19 24 28 29 28 30 30 29
5 4 3 6 9 10 11 13 15 18 18 19 22 24 22 22 19 17 19 14 17 18 20 20 21 22 22 22 20 20 23 23 17 19 20 21 23 26 27 28 28 31 32
4 4 8 6 9 10 13 15 16 17 18 18 22 22 25 24 17 12 16 20 19 19 20 23 24 22 23 21 20 22 18 21 28 30 21 20 20 22 24 25 27 28 31
4 7 8 9 10 13 15 16 16 16 20 19 18 20 24 22 24 22 23 22 23 24 24 23 25 24 22 22 21 20 26 27 27 26 20 19 20 20 22 21 23 23 24
6 6 9 11 13 14 15 16 16 17 19 23 21 19 19 22 24 29 22 21 21 24 25 25 23 23 24 23 22 24 25 23 24 27 24 19 19 18 19 18 21 22 22
8 10 12 13 15 17 18 19 19 19 20 22 22 20 20 19 20 22 26 25 24 23 23 24 24 25 25 24 25 21 24 28 31 27 23 22 20 19 18 19 16 20 22
11 12 14 16 18 20 20 19 19 20 21 23 20 18 16 18 19 21 23 23 26 29 27 26 27 26 27 27 26 26 28 29 27 27 27 25 22 21 19 18 19 18 19
11 13 15 17 17 18 19 20 24 25 23 24 18 17 17 18 18 18 21 24 26 32 31 28 27 28 29 29 29 29 28 28 30 30 27 26 27 27 24 20 19 21 20
11 13 14 15 17 18 19 21 22 22 23 22 19 16 19 18 18 18 19 20 30 32 31 29 29 30 30 30 30 31 30 29 31 30 31 30 31 29 28 28 22 21 21
10 12 15 17 19 20 21 21 23 23 25 24 19 17 17 16 15 16 18 23 27 32 35 34 34 32 30 30 30 30 31 31 33 35 37 38 37 32 31 30 27 25 23
11 13 16 17 18 19 19 20 21 23 20 20 15 13 16 15 16 19 23 25 27 32 38 35 35 33 32 30 29 30 30 31 33 32 32 29 26 26 29 32 31 27 26
12 15 16 17 17 18 17 17 19 20 19 15 14 15 15 16 18 22 25 28 29 30 34 38 37 34 30 29 30 28 30 30 31 31 30 29 30 28 29 28 30 30 27
14 16 16 16 17 17 18 19 18 14 12 13 14 14 16 19 22 24 25 25 28 29 32 36 36 32 29 28 30 30 30 26 28 28 26 28 24 27 28 28 29 29 27
16 16 15 16 17 17 16 12 11 10 12 10 13 15 19 21 22 21 22 24 25 25 26 28 32 30 30 28 28 26 26 26 24 25 25 26 31 30 26 27 31 32 27
16 15 15 16 16 14 13 10 8 9 9 13 16 18 19 19 19 19 23 20 21 23 23 24 26 28 28 26 27 27 28 23 24 22 24 24 24 22 22 23 22 25 25
15 15 16 15 14 12 10 9 9 11 13 16 18 17 16 19 27 25 21 21 20 20 21 24 27 29 28 28 27 28 28 27 24 21 25 22 22 20 19 22 15 12 19
15 15 15 14 13 12 17 14 12 15 15 16 16 16 16 17 17 21 20 22 24 21 24 25 26 28 28 26 27 24 26 25 25 20 20 23 19 19 14 11 11 16 14
16 16 16 15 14 13 18 16 15 17 16 13 14 15 16 15 18 18 17 22 21 21 23 25 25 25 26 26 27 26 25 24 24 24 23 26 20 17 11 12 14 16 19
17 16 15 14 13 14 19 18 17 20 12 13 14 15 15 15 16 24 26 19 19 19 19 20 22 25 26 26 23 22 25 26 26 23 20 24 22 22 19 16 19 22 23
17 16 15 14 13 14 18 21 19 18 12 13 13 14 15 16 17 23 23 20 20 18 17 21 24 24 21 20 18 21 24 22 23 20 18 19 19 19 20 20 22 20 20
17 16 15 13 13 12 19 22 18 17 14 13 13 12 16 22 24 23 22 20 19 18 21 22 19 18 17 18 18 18 21 24 21 20 15 16 15 12 12 15 15 13 15
Wind_Direction
246 271 262 283 280 301 307 312 309 315 328 329 327 326 323 324 319 316 310 307 306 306 309 302 298 297 295 294 291 289 287 287 282 278 274 271 270 274 278 269 261 256 250
280 270 283 285 284 252 264 298 305 324 323 322 319 317 316 317 314 310 306 305 306 310 308 307 304 301 300 298 297 293 288 284 283 280 273 269 265 262 265 269 269 262 257
259 242 229 230 258 287 307 325 322 317 318 316 315 313 315 312 308 308 305 301 300 311 308 307 303 301 302 301 300 299 295 290 284 283 281 272 265 263 261 262 264 266 260
246 246 258 271 278 299 305 312 320 321 318 320 317 314 313 311 305 306 301 290 294 292 308 311 308 294 303 300 299 297 300 301 293 284 279 280 270 263 257 255 258 259 260
241 249 262 277 294 314 314 318 322 325 323 319 315 310 310 309 304 302 290 287 295 299 296 305 307 319 317 308 307 301 303 312 306 310 302 283 274 269 262 257 253 254 257
250 233 268 284 310 311 313 311 320 323 319 317 314 307 314 303 299 295 288 285 293 300 303 304 308 309 299 310 311 315 311 311 312 307 305 298 282 269 267 260 256 252 251
218 232 277 311 314 314 314 320 322 322 323 321 315 312 310 314 309 292 293 286 297 300 304 308 310 308 307 307 311 303 309 311 309 311 307 305 301 284 271 267 257 253 251
226 286 285 304 297 309 314 313 318 318 319 320 316 311 313 310 303 307 309 302 297 300 301 306 305 305 307 310 306 308 304 296 300 304 309 306 305 302 288 277 270 257 251
258 288 302 305 309 313 308 305 308 310 313 316 311 305 307 303 306 299 300 296 300 301 300 300 303 304 307 305 307 306 298 293 292 302 310 309 303 302 302 289 285 284 263
280 296 301 305 304 305 303 302 299 300 304 306 304 298 294 297 302 304 298 297 300 300 303 302 299 301 304 308 301 305 300 306 308 304 298 305 309 309 307 299 291 282 269
295 302 300 296 297 298 295 293 291 290 296 299 295 298 295 295 295 296 302 303 299 300 301 301 299 300 301 300 301 300 301 301 303 303 297 301 299 306 308 309 291 278 271
285 289 293 294 294 294 293 290 287 289 291 293 283 284 280 292 293 298 297 297 303 301 302 301 300 300 300 298 295 295 294 298 300 300 296 291 292 298 301 303 300 292 282
290 295 296 298 297 293 291 288 284 285 285 287 279 279 283 283 284 289 294 298 299 298 300 300 301 300 298 300 297 294 291 288 293 296 292 288 284 281 285 290 292 294 280
295 296 300 300 300 296 292 289 287 285 282 290 283 284 284 274 282 286 293 296 299 296 299 300 301 299 300 298 295 295 295 289 286 285 284 284 279 278 278 278 283 288 294
294 298 298 300 299 297 293 289 287 283 285 285 281 281 276 278 277 288 290 294 293 297 297 300 302 300 301 299 297 295 294 291 287 283 280 277 275 275 274 275 275 278 284
294 299 302 303 303 302 297 292 285 285 287 289 283 283 282 281 286 287 292 294 292 293 294 298 299 300 301 296 295 294 293 290 290 290 286 284 279 270 273 273 273 272 276
298 302 303 303 306 306 299 288 288 289 293 288 285 282 287 289 291 290 296 295 295 294 297 299 298 300 298 298 296 295 294 292 290 289 287 284 277 263 269 275 274 269 268
299 303 304 304 302 296 292 287 293 291 290 291 293 294 297 296 297 297 295 295 294 293 295 297 298 300 298 299 297 297 295 290 290 286 281 284 273 255 257 272 274 269 264
300 303 301 303 304 302 302 293 288 284 288 290 297 298 300 298 296 297 297 296 297 296 295 298 297 300 301 301 300 298 297 294 291 287 288 278 280 278 275 271 273 269 264
297 297 301 298 298 300 288 288 291 290 295 300 300 298 296 297 297 294 304 301 302 299 297 296 297 299 300 300 298 297 298 299 297 293 288 289 289 281 256 272 280 271 266
292 295 300 295 293 293 278 262 285 290 302 300 298 298 298 292 296 306 311 307 304 301 299 301 299 301 303 305 303 300 298 297 294 296 290 279 281 275 257 264 257 266 258
293 295 293 289 286 287 264 289 280 290 309 301 299 298 301 304 302 301 312 304 305 301 298 299 300 299 301 299 297 310 303 298 297 298 302 301 288 281 270 259 261 242 252
292 292 287 281 276 274 273 279 286 303 310 299 300 303 306 306 308 297 295 300 304 308 303 298 292 295 302 303 304 305 305 303 297 298 299 297 297 287 285 273 282 271 270
291 288 281 279 269 268 271 285 290 310 301 298 300 303 305 303 305 296 305 313 307 306 303 298 294 297 297 296 294 291 295 296 291 291 283 285 284 275 272 275 269 267 274
289 286 281 273 268 265 271 280 294 305 298 294 301 302 293 303 293 311 315 313 312 310 307 298 296 302 306 305 300 294 296 295 296 293 285 281 293 276 270 266 263 260 267
288 285 277 272 269 256 270 277 290 301 295 302 301 300 306 304 310 318 320 316 313 314 309 311 312 311 309 308 306 295 286 282 282 291 291 283 287 276 277 271 260 254 257